Погода в Караганде

Казахстан     49°48′27″N   73°05′18″E
темп.,
°C
ветер,
м/с
пор.,
м/с
влажн.,
%
обл.,
%
осадки,
мм/ч
давл.,
гПа
погр.,
м
28 сентября, вт
вт2800:00+6ю12911 1.1 101316
03:00+6ююз228578 0.0 101319
06:00+8ю2272100 0.0 101318
09:00+10ю4763100 0.0 1013274
12:00+13ююз61152100 0.0 1011939
15:00+10з61173100 0.4 1010775
18:00+8зюз41192100 4.8 1010655
21:00+8юз598944 2.4 1011590
29 сентября, ср
ср2900:00+6ююз499590 2.5 1010260
03:00+7юз5109168 0.3 1010296
06:00+6юз389044 0.3 1011196
09:00+8зюз5117596 0.1 10121068
12:00+11з5861100 0.4 10121083
15:00+11з5858100 0.1 10121172
18:00+9юз2376100 0.5 1013304
21:00+7з238660 0.7 101488
30 сентября, чт
чт3000:00+7ссз1281100 0.9 101466
03:00+5св018969 0.2 101522
06:00+6ююз2283100 0.2 101639
09:00+6ююз2386100 1.1 1016314
12:00+6з2385100 2.8 1015537
15:00+9з5764100 0.3 10141271
18:00+6зсз577499 0.6 1015851
21:00+4зсз478599 0.0 1016541
1 октября, пт
пт100:00+2зсз4790100 0.0 1016376
03:00+2зсз5695100 0.2 1016417
06:00+2ссз5897100 0.9 1019369
09:00+2сз5681100 0.3 1021686
12:00+3сз567694 0.6 1022831
15:00+3з8968100 0.2 10231068
18:00+3з7962100 0.3 10231227
21:00+3зюз597299 0.0 1024547
2 октября, сб
сб200:00+3зюз61269100 0.1 1024489
03:00+2зсз6107885 0.0 1025577
06:00+1зсз5998100 0.4 1026465
09:00+1сз577442 0.1 1029736
12:00+4зсз455379 0.1 10301222
15:00+6зсз554370 0.0 10291535
18:00+6зсз554572 0.0 10291470
21:00+3зсз33595 0.0 103078